GPS BIIF-7 (40105 NORAD) Tracking and Keplerian Element Data

This shows tracking and keplerian element data for the satellite.

Feedback or suggestion? Click here.




ElementValue
Catalog40105
NameGPS BIIF-7
Epoch Orbit3111
Epoch Day348.36479591
Epoch Year2018
RAAN197.9845
Inclination54.5777
Eccentricity0.001217
Argument of Perigee97.5066
Mean Anonmoly262.7008
Mean Motion2.0055196
Decay Rate6.6E-07
L11 40105U 14045A 18348.36479591 .00000066 00000-0 00000-0 0 9994
L22 40105 54.5777 197.9845 0012170 97.5066 262.7008 2.00551960 31113

Live tracking and technical data element details for GPS BIIF-7 (NORAD 40105). GPS BIIF-7 can be tracked NOW for your location showing map with azimuth and elevation plus other details from your city location.

Track the satellite on the map from your city or location and see movement details for azimuth, elevation, latitude, longitude, range, height, and movement on the map or in text.







IsCatalogInMostPopularTable: catalog: 40105, numindb: 94
Update: records affected: 1



GetName: 40105 GPS BIIF-7

Hit Count: updated at: Sat, 15 Dec 2018 13:18:15 GMT